TimeCDT,TemperatureF,Dew PointF,Humidity,Sea Level PressureIn,VisibilityMPH,Wind Direction,Wind SpeedMPH,Gust SpeedMPH,PrecipitationIn,Events,Conditions,WindDirDegrees,DateUTC
12:15 AM,55.4,48.2,77,29.65,10.0,WSW,8.1,-,N/A,,Overcast,240,2012-10-16 05:15:00
12:35 AM,55.4,48.2,77,29.64,10.0,WSW,6.9,-,N/A,,Overcast,240,2012-10-16 05:35:00
12:55 AM,55.4,48.2,77,29.64,10.0,WSW,6.9,-,N/A,,Overcast,240,2012-10-16 05:55:00
1:15 AM,55.4,48.2,77,29.64,10.0,SW,5.8,-,N/A,,Mostly Cloudy,230,2012-10-16 06:15:00
1:35 AM,53.6,48.2,82,29.64,10.0,WSW,6.9,-,N/A,,Partly Cloudy,240,2012-10-16 06:35:00
1:55 AM,51.8,48.2,88,29.64,10.0,WSW,5.8,-,N/A,,Mostly Cloudy,240,2012-10-16 06:55:00
2:15 AM,53.6,48.2,82,29.63,10.0,WSW,8.1,-,N/A,,Overcast,240,2012-10-16 07:15:00
2:35 AM,53.6,48.2,82,29.63,10.0,WSW,8.1,-,N/A,,Overcast,240,2012-10-16 07:35:00
2:55 AM,51.8,48.2,88,29.63,10.0,WSW,6.9,-,N/A,,Overcast,240,2012-10-16 07:55:00
3:15 AM,50.0,48.2,94,29.63,10.0,WSW,6.9,-,N/A,,Mostly Cloudy,240,2012-10-16 08:15:00
3:35 AM,50.0,46.4,87,29.62,10.0,WSW,8.1,-,N/A,,Clear,240,2012-10-16 08:35:00
3:55 AM,48.2,46.4,93,29.61,10.0,WSW,8.1,-,N/A,,Clear,240,2012-10-16 08:55:00
4:15 AM,48.2,46.4,93,29.62,10.0,SW,5.8,-,N/A,,Clear,230,2012-10-16 09:15:00
4:35 AM,46.4,44.6,93,29.61,10.0,SW,6.9,-,N/A,,Clear,230,2012-10-16 09:35:00
4:55 AM,46.4,44.6,93,29.61,10.0,SW,6.9,-,N/A,,Clear,220,2012-10-16 09:55:00
5:35 AM,46.4,44.6,93,29.61,10.0,West,3.5,-,N/A,,Clear,260,2012-10-16 10:35:00
5:55 AM,44.6,42.8,93,29.60,10.0,Calm,Calm,-,N/A,,Clear,0,2012-10-16 10:55:00
6:15 AM,41.0,39.2,93,29.59,10.0,Calm,Calm,-,N/A,,Clear,0,2012-10-16 11:15:00
6:55 AM,39.2,39.2,100,29.58,10.0,South,3.5,-,N/A,,Partly Cloudy,190,2012-10-16 11:55:00
7:15 AM,41.0,39.2,93,29.57,10.0,SSW,5.8,-,N/A,,Scattered Clouds,200,2012-10-16 12:15:00
7:35 AM,41.0,41.0,100,29.58,10.0,WSW,4.6,-,N/A,,Scattered Clouds,240,2012-10-16 12:35:00
7:55 AM,41.0,41.0,100,29.56,10.0,Calm,Calm,-,N/A,,Partly Cloudy,0,2012-10-16 12:55:00
8:15 AM,39.2,37.4,93,29.56,10.0,SW,3.5,-,N/A,,Clear,230,2012-10-16 13:15:00
8:35 AM,39.2,39.2,100,29.55,10.0,North,-9999.0,-,N/A,,Clear,0,2012-10-16 13:35:00
8:55 AM,41.0,41.0,100,29.53,10.0,Calm,Calm,-,N/A,,Clear,0,2012-10-16 13:55:00
9:15 AM,44.6,44.6,100,29.52,10.0,Calm,Calm,-,N/A,,Clear,0,2012-10-16 14:15:00
9:35 AM,46.4,44.6,93,29.54,10.0,West,5.8,-,N/A,,Clear,280,2012-10-16 14:35:00
9:55 AM,48.2,46.4,93,29.53,10.0,Calm,Calm,-,N/A,,Clear,0,2012-10-16 14:55:00
10:15 AM,50.0,46.4,87,29.53,10.0,West,4.6,-,N/A,,Clear,270,2012-10-16 15:15:00
10:35 AM,50.0,46.4,87,29.51,10.0,SW,8.1,-,N/A,,Clear,220,2012-10-16 15:35:00
10:55 AM,53.6,46.4,77,29.49,10.0,SSW,5.8,-,N/A,,Clear,200,2012-10-16 15:55:00
11:15 AM,55.4,46.4,72,29.48,10.0,SW,8.1,-,N/A,,Clear,220,2012-10-16 16:15:00
11:35 AM,59.0,46.4,63,29.48,10.0,WSW,9.2,-,N/A,,Clear,240,2012-10-16 16:35:00
11:55 AM,59.0,46.4,63,29.47,10.0,SSW,4.6,-,N/A,,Clear,200,2012-10-16 16:55:00
12:15 PM,60.8,44.6,55,29.45,10.0,WSW,8.1,-,N/A,,Clear,240,2012-10-16 17:15:00
12:35 PM,64.4,44.6,49,29.45,10.0,SW,11.5,-,N/A,,Clear,230,2012-10-16 17:35:00
12:55 PM,64.4,42.8,45,29.43,10.0,SW,10.4,-,N/A,,Clear,220,2012-10-16 17:55:00
1:15 PM,64.4,42.8,45,29.41,10.0,SSW,11.5,-,N/A,,Clear,210,2012-10-16 18:15:00
1:35 PM,64.4,44.6,49,29.40,10.0,SW,11.5,-,N/A,,Clear,220,2012-10-16 18:35:00
1:55 PM,66.2,44.6,46,29.39,10.0,SW,10.4,-,N/A,,Clear,220,2012-10-16 18:55:00
2:15 PM,68.0,41.0,37,29.38,10.0,SW,10.4,-,N/A,,Clear,220,2012-10-16 19:15:00
2:35 PM,66.2,42.8,43,29.36,10.0,SSW,12.7,-,N/A,,Clear,210,2012-10-16 19:35:00
2:55 PM,66.2,42.8,43,29.35,10.0,SSW,13.8,19.6,N/A,,Clear,210,2012-10-16 19:55:00
3:15 PM,66.2,41.0,40,29.34,10.0,SSW,11.5,-,N/A,,Scattered Clouds,210,2012-10-16 20:15:00
3:35 PM,66.2,42.8,43,29.33,10.0,SSW,10.4,-,N/A,,Scattered Clouds,210,2012-10-16 20:35:00
3:55 PM,66.2,42.8,43,29.33,10.0,SSW,10.4,-,N/A,,Overcast,210,2012-10-16 20:55:00
4:15 PM,66.2,44.6,46,29.31,10.0,SSW,10.4,-,N/A,,Overcast,200,2012-10-16 21:15:00
4:35 PM,66.2,44.6,46,29.31,10.0,SSW,8.1,-,N/A,,Overcast,210,2012-10-16 21:35:00
4:55 PM,64.4,44.6,49,29.31,10.0,SSW,10.4,17.3,N/A,,Mostly Cloudy,210,2012-10-16 21:55:00
5:15 PM,64.4,46.4,52,29.31,10.0,SW,8.1,-,N/A,,Mostly Cloudy,220,2012-10-16 22:15:00
5:35 PM,62.6,46.4,55,29.31,10.0,WSW,6.9,-,N/A,,Mostly Cloudy,240,2012-10-16 22:35:00
5:55 PM,60.8,46.4,59,29.31,10.0,WSW,10.4,16.1,N/A,,Mostly Cloudy,240,2012-10-16 22:55:00
6:15 PM,60.8,46.4,59,29.31,10.0,WSW,11.5,-,N/A,,Scattered Clouds,250,2012-10-16 23:15:00
6:35 PM,57.2,50.0,77,29.31,10.0,West,15.0,-,N/A,,Mostly Cloudy,260,2012-10-16 23:35:00
6:55 PM,55.4,50.0,82,29.31,9.0,WSW,10.4,-,N/A,Rain,Light Rain,250,2012-10-16 23:55:00
7:15 PM,55.4,50.0,82,29.31,10.0,WSW,8.1,-,N/A,,Overcast,250,2012-10-17 00:15:00
7:35 PM,53.6,50.0,88,29.29,10.0,SW,6.9,-,N/A,,Overcast,230,2012-10-17 00:35:00
7:55 PM,53.6,50.0,88,29.29,10.0,SSW,5.8,-,N/A,,Overcast,210,2012-10-17 00:55:00
8:15 PM,53.6,50.0,88,29.28,10.0,South,5.8,-,N/A,Rain,Light Rain,180,2012-10-17 01:15:00
8:35 PM,53.6,50.0,88,29.28,10.0,SSW,9.2,-,N/A,,Overcast,210,2012-10-17 01:35:00
8:55 PM,53.6,50.0,88,29.28,10.0,SSW,8.1,-,N/A,,Overcast,210,2012-10-17 01:55:00
9:15 PM,53.6,50.0,88,29.30,10.0,SW,6.9,-,N/A,,Overcast,230,2012-10-17 02:15:00
9:35 PM,53.6,50.0,88,29.30,10.0,SW,10.4,-,N/A,,Overcast,220,2012-10-17 02:35:00
9:55 PM,53.6,50.0,88,29.29,10.0,SSW,9.2,-,N/A,,Overcast,210,2012-10-17 02:55:00
10:35 PM,53.6,50.0,88,29.29,10.0,SW,15.0,-,N/A,,Overcast,230,2012-10-17 03:35:00
10:55 PM,53.6,50.0,88,29.29,10.0,SW,12.7,-,N/A,,Overcast,220,2012-10-17 03:55:00
11:15 PM,53.6,50.0,88,29.29,10.0,WSW,13.8,18.4,N/A,,Overcast,240,2012-10-17 04:15:00
11:35 PM,53.6,48.2,82,29.29,10.0,WSW,15.0,21.9,N/A,,Overcast,250,2012-10-17 04:35:00
11:55 PM,53.6,48.2,82,29.29,10.0,WSW,15.0,20.7,N/A,,Overcast,250,2012-10-17 04:55:00